Location: Seattle
(47.6064°N, 122.3308°W)
Time: 14:47:07
(UTC-08:00)

Transit 2A - All Passes

Search period start: 25 November 2020 00:00
Search period end: 05 December 2020 00:00
Orbit: 594 x 964 km, 66.7° (Epoch: 25 November)

Date Brightness Start Highest point End Pass type
(mag) Time Alt. Az. Time Alt. Az. Time Alt. Az.
25 Nov - 01:39:46 10° NNW 01:44:28 28° NE 01:48:46 10° E night (unlit)
25 Nov - 03:22:53 10° NW 03:28:06 59° WSW 03:32:45 10° SSE night (unlit)
25 Nov - 16:26:14 10° ESE 16:27:56 11° E 16:29:37 10° E daylight
25 Nov - 18:03:54 10° SSW 18:10:08 61° ESE 18:16:04 10° NE visible
25 Nov - 19:48:02 10° WSW 19:53:43 35° NW 19:59:06 10° NNE visible
25 Nov - 21:35:44 10° NW 21:38:42 14° NNW 21:41:36 10° NNE visible
25 Nov - 23:23:01 10° N 23:24:35 11° N 23:26:07 10° NNE night (unlit)
26 Nov - 01:05:43 10° NNW 01:10:01 23° NNE 01:13:59 10° E night (unlit)
26 Nov - 02:48:39 10° NW 02:53:59 84° WSW 02:58:45 10° SSE night (unlit)
26 Nov - 04:34:14 10° W 04:36:08 12° WSW 04:37:58 10° SW night (unlit)
26 Nov - 17:30:05 10° S 17:36:03 45° ESE 17:41:46 10° NE visible
26 Nov - 19:13:23 10° WSW 19:19:23 44° NW 19:25:02 10° NNE visible
26 Nov - 21:00:31 10° WNW 21:04:06 16° NNW 21:07:33 10° NNE visible
26 Nov - 22:48:43 10° N 22:49:54 11° N 22:51:03 10° NNE night (unlit)
27 Nov - 00:31:41 10° NNW 00:35:30 19° NNE 00:39:05 10° ENE night (unlit)
27 Nov - 02:14:27 10° NNW 02:19:48 70° NE 02:24:34 10° SE night (unlit)
27 Nov - 03:58:53 10° WNW 04:02:17 18° WSW 04:05:28 10° SSW night (unlit)
27 Nov - 16:56:29 10° S 17:02:01 33° ESE 17:07:21 10° NE visible
27 Nov - 18:38:52 10° SW 18:45:05 57° NW 18:50:56 10° NNE visible
27 Nov - 20:25:21 10° WNW 20:29:32 19° NNW 20:33:31 10° NNE visible
27 Nov - 22:14:02 10° NNW 22:15:11 11° N 22:16:21 10° N visible
27 Nov - 23:57:40 10° NNW 00:00:57 16° NNE 00:04:03 10° ENE night (unlit)
28 Nov - 01:40:19 10° NNW 01:45:33 51° NE 01:50:14 10° SE night (unlit)
28 Nov - 03:24:09 10° NW 03:28:23 26° WSW 03:32:17 10° SSW night (unlit)
28 Nov - 16:23:07 10° SSE 16:28:02 24° ESE 16:32:47 10° ENE daylight
28 Nov - 18:04:30 10° SW 18:10:50 74° NW 18:16:48 10° NNE visible
28 Nov - 19:50:18 10° W 19:55:01 22° NNW 19:59:29 10° NNE visible
28 Nov - 21:38:57 10° NNW 21:40:29 11° N 21:42:00 10° N visible
28 Nov - 23:23:38 10° N 23:26:20 14° NNE 23:28:56 10° NE night (unlit)
29 Nov - 01:06:13 10° NNW 01:11:14 38° NE 01:15:45 10° ESE night (unlit)
29 Nov - 02:49:39 10° NW 02:54:25 38° WSW 02:58:45 10° S night (unlit)
29 Nov - 15:50:10 10° SE 15:54:06 17° ESE 15:57:57 10° ENE daylight
29 Nov - 17:30:18 10° SSW 17:36:38 85° ESE 17:42:38 10° NE visible
29 Nov - 19:15:22 10° W 19:20:33 27° NW 19:25:26 10° NNE visible
29 Nov - 21:03:41 10° NW 21:05:48 12° NNW 21:07:53 10° N visible
29 Nov - 22:49:36 10° N 22:51:42 12° NNE 22:53:43 10° NE night (unlit)
30 Nov - 00:32:08 10° NNW 00:36:51 29° NE 00:41:07 10° E night (unlit)
30 Nov - 02:15:18 10° NW 02:20:23 55° WSW 02:24:58 10° SSE night (unlit)
30 Nov - 15:17:59 10° ESE 15:20:13 12° ESE 15:22:26 10° E daylight
30 Nov - 16:56:15 10° SSW 17:02:30 64° ESE 17:08:24 10° NE visible
30 Nov - 18:40:33 10° WSW 18:46:08 33° NW 18:51:23 10° NNE visible
30 Nov - 20:28:24 10° NW 20:31:10 13° NNW 20:33:49 10° N visible
30 Nov - 22:15:33 10° N 22:17:02 11° N 22:18:28 10° NNE visible
30 Nov - 23:58:05 10° NNW 00:02:24 23° NE 00:06:22 10° E night (unlit)
01 Dec - 01:41:02 10° NW 01:46:17 79° WSW 01:50:59 10° SSE night (unlit)
01 Dec - 03:27:12 10° W 03:28:22 11° W 03:29:31 10° WSW night (unlit)
01 Dec - 16:22:23 10° S 16:28:24 47° ESE 16:34:07 10° NE daylight
01 Dec - 18:05:52 10° WSW 18:11:46 42° NW 18:17:19 10° NNE visible
01 Dec - 19:53:09 10° WNW 19:56:32 15° NNW 19:59:47 10° NNE visible
01 Dec - 21:41:22 10° N 21:42:20 10° N 21:43:16 10° NNE visible
01 Dec - 23:24:04 10° NNW 23:27:55 19° NNE 23:31:28 10° ENE night (unlit)
02 Dec - 01:06:50 10° NNW 01:12:07 74° NE 01:16:50 10° SE night (unlit)
02 Dec - 02:51:27 10° WNW 02:54:32 16° WSW 02:57:27 10° SW night (unlit)
02 Dec - 15:48:44 10° S 15:54:21 35° ESE 15:59:44 10° NE daylight
02 Dec - 17:31:20 10° SW 17:37:28 54° NW 17:43:13 10° NNE visible
02 Dec - 19:17:59 10° WNW 19:21:58 18° NNW 19:25:46 10° NNE visible
02 Dec - 21:06:49 10° N 21:07:38 10° N 21:08:27 10° N visible
02 Dec - 22:50:03 10° NNW 22:53:21 16° NNE 22:56:28 10° ENE night (unlit)
03 Dec - 00:32:41 10° NNW 00:37:53 53° NE 00:42:31 10° SE night (unlit)
03 Dec - 02:16:37 10° NW 02:20:38 24° WSW 02:24:21 10° SSW night (unlit)
03 Dec - 15:15:20 10° SSE 15:20:22 26° ESE 15:25:12 10° NE daylight
03 Dec - 16:56:56 10° SW 17:03:12 70° NW 17:09:06 10° NNE visible
03 Dec - 18:42:54 10° W 18:47:26 21° NNW 18:51:44 10° NNE visible
03 Dec - 20:31:43 10° NNW 20:32:56 11° N 20:34:08 10° N visible
03 Dec - 22:16:03 10° N 22:18:45 14° NNE 22:21:20 10° NE night (unlit)
03 Dec - 23:58:35 10° NNW 00:03:34 39° NE 00:08:04 10° ESE night (unlit)
04 Dec - 01:42:05 10° NW 01:46:41 34° WSW 01:50:53 10° S night (unlit)
04 Dec - 14:42:17 10° SSE 14:46:24 19° ESE 14:50:25 10° ENE daylight
04 Dec - 16:22:41 10° SSW 16:29:00 89° SE 16:34:57 10° NE daylight
04 Dec - 18:07:55 10° W 18:12:57 26° NW 18:17:42 10° NNE visible
04 Dec - 19:56:25 10° NNW 19:58:15 11° NNW 20:00:03 10° N visible
04 Dec - 21:42:03 10° N 21:44:07 12° NNE 21:46:07 10° NE visible
04 Dec - 23:24:31 10° NNW 23:29:12 30° NE 23:33:28 10° ESE night (unlit)
